カタログに戻る

THORAD AGENA D DEB

運用中SSO
NORAD 4986·DEBRIS·🇺🇸 United States

打ち上げ Apr 8, 1970 から Vandenberg Space Force Base

Loading…

次のパス

TLE

Source: Space-Track
1 04986U 70025HG  26228.55752642  .00000009  00000-0  91095-4 0  9994
2 04986  99.7410 113.1694 0053127 282.3143 195.4571 13.42948234758726

AllMySatでTHORAD AGENA D DEBをリアルタイム追跡

Download on the App Store